Theta_e
350 341 332 334 336 340 343 347 346 346 345 342 339 338 340 338 336 332 328 328 329 330 333 335 336 337 336 333 331 331 333 335 337 339 340 340 340 340 341 340 339 338 338 338 337 337 337 336 336 335 335 336 337 336 336 337 337 336 337 337 337 337 339 340 340 340 341 341 341 341 341 341 340 341 341 341 340 341 340 339 338 338 338 339 338
350 343 335 334 337 339 343 347 345 346 345 342 340 339 340 338 337 332 328 328 329 332 334 335 335 338 338 335 333 334 336 339 340 340 341 341 341 340 340 339 338 338 339 338 337 337 337 336 336 336 336 336 336 336 336 337 337 337 337 337 337 337 338 339 339 339 340 341 341 340 340 340 340 341 341 341 341 340 339 338 338 338 338 338 337
349 345 338 334 335 339 343 346 345 346 345 344 341 340 340 338 337 333 328 327 330 333 336 335 336 339 339 336 335 338 339 340 341 341 342 341 341 339 339 338 339 339 338 337 337 337 336 336 336 336 336 336 336 336 336 336 337 337 336 337 336 336 337 338 339 339 339 340 340 340 339 340 340 341 341 341 340 340 339 338 338 338 338 338 337
349 345 340 336 335 338 341 345 346 347 346 345 342 341 340 338 338 333 328 327 331 335 337 337 338 340 339 336 337 341 341 341 341 342 342 342 341 339 338 338 339 339 338 336 336 336 336 337 336 337 336 335 336 335 336 336 336 336 336 335 335 335 337 337 338 339 339 339 339 339 339 339 340 340 340 339 339 339 338 337 337 337 336 336 337
349 345 341 340 338 338 340 344 346 347 347 346 343 342 340 339 337 334 328 328 333 336 338 339 340 340 338 337 339 342 341 341 341 341 342 342 340 339 338 338 339 339 338 336 336 336 337 338 336 336 335 335 335 334 334 334 335 335 335 334 334 335 336 337 337 338 338 339 339 339 339 339 339 338 338 337 337 337 337 337 336 336 335 335 335
348 345 343 343 344 341 339 343 346 347 347 346 344 342 340 339 337 334 329 329 334 337 339 340 341 340 338 336 338 341 340 341 341 341 342 341 339 338 338 339 340 338 337 337 337 338 339 338 336 334 334 334 333 333 332 332 334 334 334 335 334 335 335 336 337 337 337 338 339 339 339 339 338 337 337 337 336 336 336 336 336 336 335 333 333
347 346 346 346 347 343 339 343 345 347 347 346 344 342 341 339 338 334 329 331 335 337 340 341 341 338 337 335 336 338 338 340 342 341 341 339 337 338 340 340 340 338 337 337 338 339 339 338 336 334 333 333 332 331 331 331 333 333 334 334 334 334 334 334 336 336 336 337 338 339 338 338 338 337 337 337 336 335 334 334 335 335 335 333 332
345 346 346 346 346 342 340 343 345 347 347 346 345 343 341 339 338 335 331 332 335 338 340 341 340 336 334 334 335 337 337 339 341 341 340 337 336 339 341 341 339 338 338 339 339 339 338 338 337 336 334 332 330 328 328 330 333 332 333 332 332 332 333 333 335 335 336 337 337 338 338 337 336 337 337 337 336 335 334 333 333 332 333 332 331
345 344 345 346 345 341 340 343 345 347 347 347 345 344 342 340 338 335 333 333 336 339 340 340 338 335 336 337 337 337 337 338 338 338 336 334 337 341 341 340 339 339 339 339 340 339 339 338 338 337 335 333 331 326 323 326 330 332 331 331 331 331 332 331 332 334 335 335 335 336 336 336 335 336 336 335 335 334 332 331 331 331 330 331 331
344 344 344 346 346 341 341 343 345 347 348 347 345 344 342 340 338 336 333 335 338 339 340 338 336 336 339 340 339 337 338 337 335 336 335 334 338 341 340 339 338 340 340 340 340 340 339 338 338 338 336 334 332 328 322 320 326 331 329 329 331 331 331 330 330 331 334 334 333 334 334 334 334 335 335 334 333 332 330 330 331 330 329 330 330
344 344 344 346 345 342 341 343 345 347 347 346 345 344 342 340 338 336 334 337 339 339 338 336 335 337 341 340 337 337 339 339 335 335 336 337 339 340 339 338 338 341 341 340 340 340 339 338 338 337 335 333 333 331 323 318 322 329 327 327 330 331 332 332 331 330 332 333 333 332 332 332 332 334 334 333 331 330 330 330 330 330 329 329 329
344 345 345 345 344 342 342 343 345 346 346 345 344 343 342 340 338 336 335 337 338 337 336 335 336 339 341 338 336 338 341 340 337 336 336 337 339 339 338 338 340 341 340 340 340 339 338 338 336 333 333 332 332 329 322 319 322 327 327 328 331 332 334 334 334 332 332 333 333 332 331 330 330 332 332 332 331 330 330 330 330 330 329 329 329
345 345 345 343 343 342 341 343 345 345 345 344 343 342 341 339 337 336 336 337 338 338 336 336 337 338 337 336 337 340 341 340 338 338 336 336 337 338 338 339 340 341 340 340 339 338 337 336 334 332 333 333 331 324 320 323 325 327 329 331 332 333 334 334 334 333 333 333 332 331 330 330 330 330 331 331 331 330 330 329 329 329 328 328 328
345 346 345 342 343 343 342 344 345 345 345 344 343 343 341 339 338 337 338 339 340 339 337 337 337 335 334 337 340 341 340 340 340 339 337 336 336 338 339 339 339 340 340 339 338 337 335 334 332 333 334 333 330 322 321 328 329 330 331 332 333 334 335 334 332 333 333 332 332 331 330 331 331 331 331 331 330 329 329 329 328 328 328 327 327
346 347 345 341 343 344 343 345 345 345 344 343 343 342 341 340 339 339 339 340 340 339 337 338 336 333 335 339 341 341 340 339 340 339 337 336 336 339 340 340 339 339 340 339 337 336 334 332 333 333 332 330 328 322 321 327 331 331 331 332 333 335 336 334 332 333 333 332 331 330 330 330 330 330 330 330 329 329 329 329 328 328 328 327 327
347 347 344 341 343 344 343 344 344 344 344 344 343 342 342 340 340 339 340 341 340 338 337 337 337 336 337 339 341 340 339 339 339 338 337 336 338 340 340 340 339 339 339 338 337 335 332 332 333 333 330 328 328 325 322 326 330 331 332 333 334 335 336 335 332 333 332 331 329 327 328 328 328 329 329 329 329 329 328 328 328 328 327 327 327
348 346 344 342 342 343 342 342 343 343 343 343 343 342 342 341 339 339 340 340 339 338 338 338 339 338 338 339 340 340 340 339 339 338 337 337 338 339 339 339 339 339 339 337 336 334 332 332 334 333 331 329 328 327 325 326 331 332 333 333 333 335 335 335 333 333 332 331 329 328 328 328 328 329 328 329 328 328 327 327 327 327 327 327 327
347 345 344 343 343 342 341 341 341 341 341 341 341 341 341 340 339 338 339 338 338 338 338 339 340 340 338 338 338 338 339 339 338 338 336 337 339 339 339 339 339 339 338 337 335 333 332 332 333 333 331 329 329 327 325 327 331 332 332 332 333 334 334 335 334 334 333 331 330 328 328 328 328 328 328 328 328 328 328 327 328 327 327 326 327
347 345 344 343 343 341 342 341 340 340 339 340 338 338 339 339 338 338 338 338 338 339 339 340 341 341 338 338 338 337 337 337 336 336 334 336 338 338 338 338 339 339 337 336 334 333 332 332 333 334 332 330 329 328 329 331 332 333 333 333 333 333 334 335 334 333 332 330 328 328 328 328 328 328 328 328 328 328 328 327 327 327 326 326 326
347 345 344 343 343 342 343 342 342 340 338 339 338 337 337 338 338 338 338 338 339 339 339 340 341 341 339 338 338 338 337 335 334 332 332 334 337 337 337 338 338 338 337 335 334 333 332 331 332 334 333 331 330 328 331 334 333 333 333 333 333 332 331 332 333 332 331 329 328 328 328 329 328 329 329 328 327 327 327 327 327 327 327 327 326
347 346 345 344 343 343 343 343 342 340 339 339 338 337 335 336 337 337 338 338 339 339 340 340 340 340 339 339 338 339 338 335 334 332 332 334 336 337 337 337 337 336 336 335 334 334 332 332 332 333 333 332 331 329 331 334 333 334 334 334 334 333 332 332 333 331 331 329 328 328 329 329 328 328 329 328 328 327 327 327 327 327 326 326 326
347 347 346 344 343 343 343 343 343 341 341 340 338 336 335 336 336 336 336 337 338 339 340 340 340 339 338 338 338 339 338 336 336 335 334 334 334 336 335 335 335 334 334 334 334 333 332 331 331 332 333 332 331 330 331 333 334 334 335 335 334 334 333 332 333 331 331 328 326 328 329 328 328 328 328 328 328 327 327 327 326 326 326 326 325
346 345 345 343 342 342 342 342 341 341 341 340 339 335 335 336 335 335 336 337 338 339 340 339 339 338 337 338 338 339 338 337 338 336 336 335 334 336 334 334 335 334 332 333 333 333 332 332 331 331 333 334 333 333 332 332 334 335 336 336 334 333 332 332 331 331 329 325 326 329 328 327 328 328 328 328 327 327 326 326 326 326 325 325 324
343 341 342 341 340 341 341 341 341 341 340 339 337 335 337 337 336 337 338 339 340 340 340 339 338 337 338 338 338 339 338 337 338 338 337 335 335 335 335 333 334 333 331 332 333 332 331 331 331 330 332 334 337 337 335 334 335 335 337 337 334 332 332 332 330 329 326 323 325 329 328 328 328 328 328 328 327 327 326 326 325 325 324 324 324
339 339 341 341 341 342 342 341 341 342 341 338 334 334 337 338 338 339 339 340 341 340 340 339 338 337 337 338 339 339 338 336 337 338 336 336 335 335 335 333 333 333 332 333 332 331 331 331 330 330 331 334 337 337 337 337 336 336 337 337 334 333 333 332 332 330 327 323 325 327 327 328 328 328 328 328 327 326 325 325 325 325 324 324 324
340 340 341 341 341 341 342 342 341 341 341 337 335 336 337 336 337 339 340 340 341 340 339 338 337 336 336 337 339 338 336 336 337 337 336 336 336 334 333 333 334 332 331 333 332 330 330 330 330 329 331 333 335 335 336 337 337 336 336 336 335 334 333 333 333 332 329 327 327 326 327 329 328 328 328 327 326 326 325 325 325 324 324 324 324
340 340 341 341 341 341 341 342 341 341 340 337 337 338 336 336 337 339 340 339 339 339 339 338 336 336 336 335 337 336 335 334 336 336 336 336 335 333 332 332 333 331 331 333 331 330 329 330 331 331 332 333 333 334 335 336 336 336 336 335 334 334 332 332 333 332 331 329 329 329 329 329 328 329 328 327 327 326 325 324 324 324 324 325 324
339 340 341 341 341 341 341 341 341 340 339 338 337 337 336 337 338 338 338 337 338 339 338 338 336 337 338 336 335 335 334 334 334 336 335 335 334 334 333 332 332 332 333 333 332 331 331 332 332 331 332 333 333 333 334 334 336 336 334 334 333 332 332 333 332 333 332 330 331 331 330 327 326 328 327 327 327 326 326 325 325 325 325 323 321
340 340 341 341 341 341 341 341 340 339 339 338 336 336 337 339 339 338 337 337 338 339 338 338 337 337 338 336 335 334 333 334 334 334 335 335 335 334 334 333 333 333 334 333 333 332 333 333 331 331 332 332 333 333 333 333 335 335 333 333 332 331 332 333 332 333 333 331 331 331 329 326 326 327 327 327 327 327 327 325 324 324 322 319 317
339 339 340 340 340 340 340 341 340 339 338 338 336 337 339 339 339 340 339 338 339 339 338 338 337 335 336 335 335 335 333 334 334 334 334 335 335 335 334 334 334 333 333 333 333 333 333 332 332 333 332 332 332 332 331 331 334 334 332 332 331 331 332 334 333 333 334 332 330 330 328 326 326 327 328 328 327 327 326 323 323 323 322 321 321
339 339 340 339 338 338 340 341 340 339 338 338 338 339 340 338 338 339 340 340 339 338 337 337 337 335 335 335 335 335 334 334 334 333 334 335 336 335 335 335 334 334 334 335 335 334 334 333 333 333 332 332 331 331 331 330 333 335 334 332 330 330 331 333 333 333 334 332 330 330 328 327 327 328 329 328 327 327 325 324 324 325 324 323 322
340 339 340 339 337 338 340 340 340 339 338 338 339 340 339 338 338 338 339 338 337 338 338 337 337 336 335 334 334 335 335 334 334 334 334 335 336 335 335 335 335 335 336 336 336 335 334 334 334 334 334 333 331 331 331 331 333 334 334 332 330 330 331 333 334 333 333 333 332 330 329 328 327 328 329 328 327 326 326 326 326 326 324 321 316
342 340 340 338 337 338 340 340 340 339 339 339 340 340 339 339 338 338 337 337 336 337 338 337 336 336 335 335 334 333 334 334 333 334 334 334 335 335 335 335 335 335 336 335 335 335 335 335 335 335 335 334 332 332 333 332 332 332 334 333 332 332 331 332 334 332 332 333 332 331 330 329 327 328 328 328 327 327 327 327 327 327 326 322 318
343 341 340 339 338 338 339 340 340 340 341 340 340 340 339 339 337 337 337 336 336 336 338 338 336 335 336 337 334 334 334 333 333 333 333 334 335 336 336 336 336 336 336 335 336 336 335 335 334 334 334 333 332 332 332 332 332 332 334 333 331 331 331 331 333 332 332 332 332 332 331 330 327 327 327 327 327 326 327 328 328 329 329 327 326
342 342 340 339 339 340 340 341 341 341 341 340 340 339 339 338 337 337 337 336 336 335 337 338 337 336 336 337 335 335 335 333 333 333 332 334 335 336 336 336 337 335 335 336 336 336 335 335 334 334 334 333 333 332 331 332 333 332 333 332 330 332 332 331 332 332 332 331 331 331 331 330 329 328 327 325 325 326 327 328 329 329 329 329 329
342 342 340 339 340 341 341 341 341 341 340 340 340 339 339 338 337 337 336 336 336 336 336 336 336 336 335 336 336 336 334 334 334 332 333 335 336 337 337 336 336 335 335 335 336 336 335 334 334 334 334 333 333 333 332 333 333 332 332 332 331 333 332 331 332 332 331 331 331 331 331 331 330 330 328 323 323 327 328 328 329 328 328 329 330
342 342 340 339 340 341 341 341 341 341 341 340 340 339 338 338 338 337 336 336 336 336 336 335 335 335 334 335 336 335 334 333 334 334 335 336 336 336 336 336 335 336 336 336 336 335 335 335 335 334 334 333 332 333 333 334 334 333 333 332 332 333 333 332 332 331 331 331 331 331 331 331 330 330 329 325 324 327 327 327 327 327 327 328 329
342 342 340 339 340 340 341 341 341 341 340 340 339 338 338 338 338 337 337 337 336 335 335 335 336 334 334 335 336 335 334 334 334 335 336 336 335 335 336 335 336 337 336 334 335 334 334 335 335 334 333 333 332 332 333 334 334 333 332 331 331 332 332 332 331 331 331 330 330 330 330 330 330 330 329 328 326 326 326 326 326 327 327 328 328
341 341 341 339 340 340 341 342 341 341 340 339 339 338 337 338 337 337 337 336 335 334 334 336 336 334 334 335 336 335 334 336 336 336 337 335 334 335 336 336 337 337 335 334 334 334 335 335 335 335 334 333 333 332 333 333 333 333 332 332 332 331 331 331 332 331 330 330 330 330 329 329 331 330 330 329 328 328 327 326 327 327 326 326 326
341 341 341 340 340 340 341 341 340 340 340 339 338 338 338 338 338 338 337 336 334 334 334 335 335 334 334 334 334 335 335 336 336 336 337 335 334 336 336 335 337 336 335 335 335 334 335 335 335 336 335 333 333 332 333 333 332 332 332 332 332 332 331 331 332 331 330 331 330 330 330 329 330 329 329 329 328 329 329 328 329 326 323 323 322
340 341 342 341 340 340 340 340 339 339 339 339 338 338 338 338 338 337 337 335 334 334 334 334 334 333 334 334 334 336 336 336 336 337 337 336 336 336 335 335 336 335 335 336 334 335 335 335 335 335 335 333 333 333 332 332 333 333 333 332 332 331 331 331 330 330 330 330 330 330 329 329 329 328 328 328 328 329 329 329 329 325 324 324 322
341 341 341 340 339 340 340 339 339 338 338 338 338 337 337 337 337 337 336 336 335 336 335 334 334 334 334 335 335 335 336 336 336 337 337 337 337 336 335 335 336 335 335 336 334 334 335 335 335 334 334 333 334 334 332 332 333 333 333 332 332 331 330 330 330 331 330 329 329 329 328 328 329 328 328 329 329 329 328 328 328 326 326 328 328
340 341 341 339 339 340 339 339 338 337 336 337 337 337 337 338 337 336 336 336 336 337 336 333 334 335 334 335 335 335 335 335 336 338 337 337 336 336 335 334 335 336 336 336 335 335 334 335 334 334 334 333 333 333 332 332 332 331 332 333 333 332 331 330 328 329 329 328 328 329 329 329 329 329 329 329 329 328 328 328 328 327 327 328 328
340 340 340 339 339 339 339 339 338 337 336 337 336 336 337 337 336 336 336 336 336 336 336 333 334 336 336 335 336 336 335 335 336 337 337 336 337 337 335 334 336 336 335 334 335 335 334 334 334 333 334 333 333 332 332 333 332 331 332 333 332 332 333 331 328 328 329 329 329 330 329 329 329 328 328 328 328 328 328 328 327 327 327 327 328
340 341 340 338 339 339 339 339 338 337 336 336 335 334 336 336 336 337 336 335 336 335 334 333 334 335 336 336 336 335 335 336 337 336 336 337 337 337 336 335 336 335 335 334 335 335 335 334 334 334 334 333 333 333 332 332 331 331 332 333 333 334 334 331 328 327 328 329 329 329 329 329 329 328 328 328 328 328 327 328 328 327 327 327 327
336 340 340 338 339 339 339 338 338 338 336 335 334 333 334 336 337 337 336 335 335 334 333 333 333 334 335 336 336 336 336 337 336 335 335 336 336 336 336 336 335 333 334 335 334 334 334 334 334 334 333 332 332 333 332 332 331 331 331 332 333 333 332 331 330 329 328 329 329 330 330 329 329 328 328 328 328 328 327 327 327 327 327 327 327
335 340 340 339 338 338 339 339 338 338 337 336 334 333 334 335 336 336 334 335 334 333 333 332 333 335 336 336 336 337 336 335 335 334 334 335 335 336 336 336 335 334 334 334 334 334 334 334 334 333 333 333 333 333 333 333 332 332 331 332 332 331 331 331 331 330 329 329 329 330 330 329 329 329 329 328 326 327 326 326 326 326 326 325 326
337 339 340 339 339 339 339 339 338 338 336 335 334 334 334 335 335 336 335 335 335 334 333 333 334 334 335 336 336 337 336 335 335 334 334 335 335 336 336 336 336 335 335 334 334 334 334 334 334 333 333 333 333 333 333 332 333 333 331 331 332 331 331 331 330 330 330 329 328 329 329 328 328 328 328 327 326 325 326 325 325 325 324 324 324
337 339 339 340 339 340 340 339 339 338 335 334 333 333 335 336 335 336 336 336 336 334 333 333 334 334 335 336 337 336 336 336 335 335 335 334 334 335 335 335 335 334 334 333 333 333 333 334 334 334 333 333 333 333 332 331 332 332 331 331 331 331 332 331 330 330 330 330 329 329 328 328 328 327 327 327 326 325 325 324 324 324 324 324 323
337 339 339 340 340 340 341 340 339 337 333 333 333 333 336 336 335 335 336 336 336 334 333 334 335 334 335 336 336 336 336 336 335 335 334 334 334 334 334 334 334 333 332 332 332 332 332 333 334 334 333 333 333 332 331 331 330 330 331 330 330 331 332 331 331 331 330 330 330 328 328 328 328 327 326 326 325 324 323 322 322 321 321 320 320
337 340 339 340 340 340 341 341 339 337 333 332 333 333 335 335 334 335 335 335 335 334 334 335 335 334 335 336 336 335 335 335 334 334 334 334 334 334 334 333 333 333 332 331 332 332 332 333 334 334 333 333 333 332 332 331 330 330 331 330 330 332 332 331 330 330 330 330 330 329 328 328 328 327 327 326 324 322 320 319 318 317 317 316 317
Wind_Speed
19 25 26 22 21 20 21 22 22 22 22 23 24 24 23 23 22 21 22 23 23 23 21 20 18 17 16 16 16 15 15 15 15 15 15 14 14 14 14 14 14 13 14 15 15 15 15 15 15 14 15 16 15 15 16 17 17 19 20 20 19 20 21 20 21 22 22 22 21 22 22 21 21 21 21 20 20 20 20 21 21 21 21 19 20
21 23 25 23 21 20 21 22 23 22 23 23 24 24 23 23 22 21 22 23 24 23 22 21 19 17 17 17 16 16 16 16 16 15 15 14 14 14 14 14 14 14 14 15 15 16 15 16 15 14 14 14 15 15 15 16 16 17 19 20 20 21 21 21 22 23 23 22 23 23 23 22 22 21 21 21 21 21 21 21 21 22 21 20 21
22 21 23 23 21 21 22 22 23 23 23 23 24 24 24 23 22 22 22 23 24 23 22 21 19 17 17 17 16 16 17 17 16 15 14 13 13 13 14 13 14 14 14 14 15 16 16 16 15 14 14 13 14 14 14 14 15 16 18 20 21 22 22 21 22 23 23 22 22 23 23 23 22 21 21 21 21 21 21 21 20 20 21 20 20
23 21 22 22 21 21 21 22 23 24 23 23 24 25 24 23 22 22 23 24 24 24 23 21 18 18 18 17 16 16 16 16 15 15 14 14 13 13 13 14 14 14 13 14 15 15 16 15 15 15 14 13 13 13 13 13 14 17 19 21 21 21 21 20 21 22 22 22 21 21 22 22 21 20 20 21 21 21 20 20 20 19 18 19 19
23 22 21 21 21 21 21 22 23 24 24 23 24 25 24 23 23 23 23 24 25 25 23 20 18 18 18 17 16 17 16 15 14 15 15 14 14 14 14 14 13 13 13 13 14 14 15 15 15 15 14 13 11 12 12 13 16 19 20 20 20 21 20 18 18 20 21 21 21 20 20 21 20 19 19 20 20 20 20 19 19 18 17 17 18
21 21 21 20 20 21 22 23 24 25 24 24 25 25 25 24 23 23 24 25 26 25 22 19 18 18 17 17 17 17 17 15 14 14 15 14 14 14 13 13 13 12 13 13 12 12 13 14 14 14 13 13 12 11 11 13 17 20 19 18 19 19 18 17 16 17 19 20 19 19 18 18 19 18 18 18 17 16 17 18 19 18 17 15 16
20 20 20 20 19 21 23 23 24 25 25 25 25 25 25 25 24 24 25 26 27 25 21 19 19 18 18 18 17 17 17 17 15 14 15 14 14 14 13 13 13 12 12 12 11 11 11 12 13 13 12 12 11 11 10 12 16 18 16 16 17 17 17 16 17 16 15 16 17 19 18 17 17 16 16 15 15 15 14 15 18 19 18 17 15
20 19 19 20 19 22 24 23 25 25 25 25 25 25 25 25 25 25 26 27 27 25 20 19 18 18 19 19 17 16 17 17 15 14 14 13 14 14 12 13 13 11 11 10 10 10 10 10 11 11 11 11 10 10 10 11 15 16 14 15 14 13 13 12 13 11 8 10 12 16 16 14 16 16 15 14 15 17 16 14 15 15 16 16 15
19 19 19 18 18 23 24 24 25 24 25 25 25 26 26 26 25 25 26 27 26 23 20 18 18 19 19 18 16 16 16 16 15 14 13 15 15 14 13 12 11 11 10 10 9 9 9 9 9 9 10 10 10 9 8 9 14 16 15 15 13 10 8 6 5 3 5 10 13 16 15 14 15 15 14 15 15 14 15 14 14 14 15 16 16
20 19 19 17 18 24 24 24 25 24 25 25 26 26 26 26 25 25 25 27 25 21 19 18 19 20 18 16 16 17 17 16 15 15 15 16 16 14 13 12 11 11 10 9 9 8 8 8 8 8 8 9 9 8 8 8 12 16 15 15 13 11 9 8 8 8 9 12 15 17 17 17 15 13 12 13 13 11 12 14 15 16 16 16 17
20 20 18 17 20 24 24 25 25 24 25 25 25 25 25 25 25 24 25 26 23 19 18 18 19 18 17 15 16 18 17 16 16 16 16 17 16 15 13 12 11 11 11 10 9 8 8 8 7 6 6 6 7 8 8 9 13 17 15 14 12 10 9 9 11 13 13 14 16 15 15 16 15 13 11 12 12 11 12 14 16 17 17 17 17
20 19 17 18 22 25 25 25 25 24 25 25 25 24 25 24 24 24 25 24 21 19 18 18 18 17 17 17 18 18 15 15 17 17 17 17 16 15 13 12 11 10 11 10 8 8 7 6 5 4 5 5 6 8 9 11 15 17 15 11 8 7 7 9 11 13 15 15 17 16 15 16 14 13 12 13 13 13 13 14 16 17 18 17 17
20 18 17 19 21 24 25 25 25 25 25 25 25 24 24 24 24 24 24 22 20 19 18 18 17 16 17 18 18 16 14 15 17 18 17 16 16 15 13 12 11 10 10 9 8 7 6 5 4 4 5 6 7 9 12 15 16 16 13 9 7 6 8 12 13 14 16 15 15 15 16 16 14 13 13 14 15 15 15 15 16 17 17 18 18
21 19 19 20 20 23 25 25 26 25 25 24 24 24 24 25 24 24 23 22 21 20 19 18 17 18 19 18 17 15 14 15 17 18 17 16 16 14 13 13 11 10 9 9 7 6 5 5 4 5 6 7 8 11 15 16 15 13 11 8 6 8 9 12 14 15 16 16 16 16 16 15 14 13 14 14 15 16 16 16 16 16 17 18 18
20 20 21 21 19 22 24 25 26 25 25 24 24 23 24 25 25 24 23 22 21 20 19 19 19 20 20 19 17 15 15 15 16 18 16 15 14 13 13 12 12 10 8 8 7 6 5 5 5 5 7 8 9 11 14 15 14 11 9 8 8 10 11 12 14 15 16 16 15 15 16 15 14 13 14 14 15 15 16 16 16 16 17 17 17
21 20 21 22 20 22 23 25 25 24 24 23 23 23 23 25 25 24 23 21 20 20 19 19 20 20 19 18 17 16 15 15 15 15 14 14 13 13 12 12 11 10 8 7 6 6 6 6 6 6 7 9 10 11 12 13 12 10 10 10 11 12 13 13 14 15 15 15 14 14 15 14 13 14 14 14 15 15 16 16 16 16 16 17 17
20 20 21 23 22 22 22 22 24 23 22 22 23 22 23 24 25 24 22 21 20 20 20 19 19 19 18 18 17 17 17 16 15 15 13 13 13 12 12 12 11 10 8 6 6 7 7 6 7 7 8 9 10 11 11 12 12 12 14 15 16 16 15 16 16 16 16 15 15 15 15 14 13 14 14 14 14 15 15 15 16 16 16 16 16
21 22 22 24 24 23 22 21 22 21 21 21 21 21 22 24 24 23 21 20 20 19 19 18 18 18 18 17 17 17 17 17 15 14 13 13 13 12 12 12 11 10 8 6 7 7 6 6 7 7 9 9 10 12 13 14 15 15 15 16 16 16 15 16 16 16 16 15 15 15 15 13 13 13 13 14 14 14 15 15 15 15 15 15 15
22 23 23 24 24 23 22 21 21 20 20 20 20 21 22 23 23 22 21 20 20 19 18 18 17 18 19 18 17 17 16 16 15 14 13 13 13 11 11 11 11 9 7 7 8 7 6 7 7 7 9 9 10 14 16 17 16 15 14 14 14 14 14 14 15 15 14 13 13 14 14 12 13 13 13 13 14 14 14 14 13 13 14 14 14
22 24 24 23 23 23 23 22 21 20 20 20 19 20 20 21 21 20 20 19 19 17 17 18 19 19 19 18 16 17 16 16 15 14 13 12 12 11 11 11 10 9 7 7 8 7 7 7 7 7 8 9 10 14 16 16 15 14 14 14 14 14 14 12 13 13 13 13 13 14 14 13 12 12 12 12 13 13 13 13 13 13 13 13 13
20 22 23 23 22 23 24 22 22 22 20 19 18 18 18 17 18 19 19 18 17 17 17 19 21 20 19 17 16 16 16 15 14 13 13 12 12 11 11 11 10 9 8 7 7 7 7 7 7 7 7 9 9 12 14 13 13 12 12 12 12 13 12 10 12 14 14 13 13 13 13 12 11 11 12 12 12 12 13 12 12 13 13 13 13
19 20 23 23 24 25 24 22 22 21 19 18 17 17 18 16 16 17 17 16 16 17 18 19 20 20 18 17 16 15 14 14 14 14 13 12 12 11 11 10 9 9 9 8 8 7 7 7 6 6 6 8 8 10 11 10 10 10 10 10 10 10 9 10 13 15 13 11 12 13 11 11 11 11 11 11 11 11 12 12 11 12 13 13 13
14 12 14 15 17 20 20 19 19 17 18 18 17 18 19 18 17 17 16 16 16 18 19 18 19 19 17 16 17 17 15 14 14 14 13 12 12 11 10 10 10 10 10 9 9 9 8 6 6 6 5 6 7 7 7 8 8 8 9 9 9 8 9 11 12 12 11 10 13 13 10 10 11 11 11 10 10 11 10 11 11 11 12 12 12
12 14 11 16 15 16 17 17 20 19 20 21 20 20 19 17 16 15 15 16 16 18 19 19 20 19 17 16 18 18 16 15 14 13 13 13 12 11 11 11 10 9 10 10 10 11 9 8 7 6 6 6 6 5 5 6 5 4 4 5 6 7 10 11 11 11 10 12 14 13 10 11 11 10 10 10 10 11 11 11 11 11 12 12 13
15 19 14 15 16 18 20 20 22 22 23 25 24 23 21 19 17 15 16 16 16 16 17 19 20 20 17 16 18 19 17 16 15 14 13 13 12 12 11 10 9 9 10 10 9 11 11 10 8 7 7 4 4 5 5 6 5 3 1 0 3 5 9 12 13 12 10 13 15 13 11 11 10 10 10 10 10 10 10 11 11 11 11 12 12
9 17 19 18 19 23 24 23 22 22 23 25 26 24 23 21 19 19 19 18 17 17 16 18 20 19 18 17 18 19 18 17 14 14 13 12 11 10 10 9 9 9 10 10 9 11 12 11 10 9 6 5 6 5 6 7 7 5 5 5 4 3 9 11 11 10 8 12 15 13 12 11 10 10 10 9 9 10 10 10 11 10 11 11 11
14 16 20 21 22 24 26 27 26 25 25 25 25 24 22 19 19 20 21 20 20 18 17 19 19 18 18 19 18 18 19 18 15 14 14 14 10 8 10 10 11 10 10 12 8 8 11 11 10 8 6 6 7 6 7 7 7 7 7 8 3 4 9 8 7 7 6 10 13 12 11 10 10 10 9 9 10 10 9 10 10 10 11 11 10
18 14 18 22 23 23 26 31 31 29 28 26 25 24 21 19 20 21 21 21 20 18 17 18 19 18 18 19 19 19 19 18 17 15 15 15 10 9 12 12 12 10 9 11 8 7 10 10 9 8 8 8 6 6 7 7 8 8 8 8 5 7 9 7 8 8 6 9 10 10 10 9 10 10 9 9 9 9 9 9 9 10 10 9 9
18 15 17 22 24 24 27 32 34 32 31 28 27 25 22 22 22 21 20 20 18 17 17 17 17 17 17 18 20 20 20 19 18 16 15 15 13 14 15 12 12 10 9 10 9 8 9 9 9 8 8 8 7 7 7 8 10 9 8 7 7 8 10 10 11 10 8 9 9 11 10 9 10 10 9 9 9 9 9 8 8 8 8 8 9
20 17 19 23 23 25 29 32 34 36 36 31 28 27 24 24 22 20 20 18 18 17 17 17 17 18 18 18 19 20 21 19 18 17 16 15 14 14 14 11 10 10 10 9 9 9 8 9 9 8 8 7 8 8 8 9 9 7 5 4 8 6 10 12 13 11 11 10 10 12 11 10 10 10 9 9 9 8 8 7 8 8 8 8 8
21 19 19 22 22 26 30 30 31 36 38 33 30 29 24 23 22 20 20 18 18 18 17 18 17 18 19 18 18 20 21 19 17 17 16 14 13 12 11 10 9 9 10 9 9 9 8 8 7 8 7 5 7 9 9 9 7 5 3 11 14 10 11 12 14 13 13 11 10 11 10 9 10 10 9 8 8 8 8 8 8 8 8 9 8
18 17 17 21 23 26 30 30 29 31 34 33 32 30 25 23 23 22 22 20 19 18 18 18 18 20 21 20 19 20 21 19 18 16 15 14 12 12 11 10 10 9 9 9 9 8 7 7 6 6 5 3 6 6 6 8 7 4 5 11 14 10 9 14 14 12 13 13 11 10 9 8 9 9 8 8 9 9 9 8 8 9 9 10 10
14 16 16 21 24 26 30 30 29 27 28 31 32 31 27 26 25 25 23 20 19 19 20 20 20 22 23 21 20 20 20 19 18 16 15 13 11 12 11 10 10 9 9 9 9 8 6 6 6 4 3 2 3 3 5 6 5 4 5 8 9 7 7 13 11 9 12 14 12 11 11 9 9 9 8 8 9 10 10 9 9 10 10 12 13
13 16 17 20 22 25 27 26 27 25 22 26 29 29 28 26 24 24 23 20 19 19 21 22 23 23 22 20 20 20 19 19 17 14 14 14 12 12 12 10 10 10 10 9 9 8 7 6 5 4 4 3 3 3 4 5 4 5 6 9 10 6 6 10 10 9 12 13 11 12 13 11 9 8 7 8 10 11 11 10 9 9 9 10 11
14 17 18 20 19 21 23 24 26 24 20 21 24 25 26 25 23 22 22 20 19 19 20 22 24 25 22 20 19 19 18 17 15 14 15 15 15 14 12 11 10 10 9 9 9 8 8 8 6 5 6 8 8 5 4 7 7 6 5 7 9 7 5 8 9 9 10 10 9 11 14 13 10 8 6 8 11 12 12 10 8 7 6 6 7
15 18 20 19 18 19 20 23 26 24 22 20 21 24 25 24 23 21 21 19 19 20 20 22 24 25 23 20 19 16 15 15 14 15 17 17 16 14 13 12 10 9 9 9 9 7 8 9 7 6 6 8 11 8 6 8 7 6 5 5 7 8 5 6 8 9 10 9 10 11 13 14 13 11 7 8 12 11 11 9 7 6 6 6 5
16 19 20 20 21 20 20 23 25 24 24 21 20 24 24 23 23 21 20 17 15 18 21 21 22 23 22 20 18 16 15 16 16 18 18 16 15 13 12 12 11 10 10 10 9 7 8 7 6 6 5 6 9 11 10 8 7 6 5 4 5 8 8 9 8 8 10 11 12 12 14 14 13 13 10 9 11 11 9 7 6 6 6 6 5
16 19 18 20 23 22 20 23 23 22 23 22 21 24 23 21 21 21 21 17 11 14 18 19 20 22 22 20 18 18 17 17 19 19 16 14 14 11 11 12 10 9 10 9 7 7 8 8 7 6 5 5 8 11 11 10 8 6 5 6 6 8 10 12 9 6 7 8 10 11 14 14 11 12 12 10 9 8 7 6 5 5 5 5 5
16 17 17 19 21 20 21 22 21 21 22 22 22 22 22 21 20 19 19 17 12 14 16 17 19 20 20 19 18 18 19 18 19 17 13 12 13 11 11 12 10 9 9 8 7 8 8 8 8 7 6 6 7 9 10 11 9 6 6 7 8 9 10 12 10 7 7 8 11 12 13 14 12 13 13 11 9 7 5 5 5 5 6 6 5
15 17 18 20 21 22 22 23 23 22 22 23 23 22 21 21 20 18 19 17 14 17 18 19 20 17 16 18 19 18 18 18 18 16 11 11 13 12 11 11 10 10 9 8 9 9 9 8 8 8 8 8 9 10 11 12 11 9 9 9 9 10 10 10 9 8 8 9 10 12 13 13 12 12 11 11 11 9 6 5 6 7 9 8 7
13 16 19 21 21 23 23 23 25 23 22 23 23 22 22 20 19 19 20 17 15 17 19 20 20 16 16 19 19 18 17 16 16 15 12 11 12 12 11 11 10 10 9 8 9 10 9 8 8 8 8 9 11 11 12 11 12 10 8 9 11 10 9 9 9 8 8 10 10 9 11 13 12 11 10 9 10 9 7 7 7 9 10 10 9
15 17 20 21 20 21 21 22 25 23 20 21 21 22 22 20 19 19 19 17 14 15 16 18 19 16 17 19 18 17 16 17 16 14 14 12 13 12 11 12 11 10 10 8 8 10 9 8 8 9 8 9 10 12 13 10 9 9 8 7 8 9 8 9 9 10 9 10 11 9 8 10 11 10 10 9 9 8 8 8 8 8 8 9 10
15 17 19 19 19 19 19 20 22 20 19 18 19 20 20 18 18 18 17 15 12 13 14 17 18 14 16 18 17 15 16 17 16 15 15 13 12 12 12 14 12 10 11 10 9 9 9 8 8 9 8 9 10 11 13 10 9 11 9 5 3 4 6 7 9 10 10 9 11 11 9 9 10 10 10 9 8 8 9 9 9 9 9 11 11
14 15 17 18 18 18 19 19 19 19 18 17 18 19 18 18 18 17 15 14 12 12 13 16 16 13 15 17 15 14 15 15 14 13 14 13 12 11 11 13 12 11 12 11 10 9 9 9 9 9 9 11 11 10 11 11 11 11 6 3 3 3 2 5 9 9 9 10 11 12 11 11 12 11 11 10 9 10 10 10 11 12 12 12 12
10 14 17 18 18 18 19 19 19 19 19 18 18 17 18 18 17 16 15 13 12 12 13 15 16 14 15 15 14 14 13 12 12 12 12 12 13 12 11 12 12 11 11 11 10 9 9 10 10 9 10 10 11 11 10 9 9 9 7 4 3 1 1 7 10 6 8 11 10 11 12 13 13 12 12 11 11 12 12 10 11 15 15 13 13
10 15 19 18 17 18 18 19 18 18 18 20 19 17 19 19 16 17 17 14 12 13 15 17 17 15 15 14 13 13 12 11 12 12 11 11 12 12 11 11 11 11 11 10 9 9 9 10 10 9 9 8 10 12 10 8 7 8 7 4 3 3 5 9 7 3 5 8 9 10 11 12 13 12 10 10 10 12 12 11 11 13 15 14 15
17 19 18 18 17 17 18 19 19 18 17 19 20 16 18 19 15 17 19 15 14 14 15 17 18 16 14 14 13 13 12 12 12 12 11 11 11 11 11 11 10 10 10 10 9 9 9 9 10 9 8 8 9 11 11 9 6 6 6 4 5 6 7 8 6 4 4 4 6 9 9 10 11 10 9 9 10 12 13 12 12 13 13 14 14
24 19 18 19 17 17 19 20 19 18 16 17 19 15 15 17 15 15 15 13 14 15 14 15 16 15 14 13 12 12 13 12 12 12 12 11 11 11 11 10 9 9 9 8 8 8 8 8 9 9 8 8 7 9 11 10 8 7 8 6 5 5 5 8 9 8 5 3 5 6 7 9 9 9 11 11 11 13 14 13 13 14 14 14 13
23 19 21 22 21 20 20 20 18 16 15 13 15 14 12 14 14 13 12 12 13 16 17 15 13 13 13 13 11 12 13 12 12 12 12 11 11 11 10 9 9 8 8 7 6 7 7 8 9 8 8 8 7 7 9 9 8 8 9 7 6 6 7 8 9 9 7 5 4 5 7 9 8 9 13 13 12 12 12 12 14 16 16 15 13
23 22 24 22 22 21 19 19 17 15 16 14 15 17 14 14 16 14 13 15 15 15 18 15 12 13 13 13 12 13 13 12 12 12 11 11 11 10 10 9 9 8 7 7 7 7 7 8 9 9 8 7 7 7 6 7 8 7 7 7 7 8 8 7 6 7 7 5 4 7 11 11 8 9 13 13 12 11 10 12 14 15 15 14 12
20 20 23 22 20 20 19 19 18 17 20 19 18 21 18 15 18 19 17 19 18 17 18 15 13 14 14 14 14 13 13 13 12 12 11 10 9 10 9 9 9 8 7 7 8 8 8 8 9 9 8 8 7 6 5 7 8 7 6 7 7 8 7 6 8 9 7 5 5 7 11 13 11 10 12 12 12 11 11 12 13 12 13 13 12
Wind_Direction
129 142 147 152 153 155 156 158 161 163 164 161 160 158 154 152 147 144 144 147 145 144 142 140 137 132 128 125 123 119 115 112 110 107 106 104 104 105 105 102 98 95 92 85 80 82 83 84 85 89 90 81 73 71 74 79 85 90 94 94 91 88 84 83 85 86 86 87 87 86 86 85 86 84 83 85 84 83 82 82 82 82 78 78 80
128 142 147 152 154 154 156 159 162 165 164 161 161 160 156 153 150 146 146 149 147 147 145 143 139 135 132 128 125 120 117 115 112 110 111 110 110 110 106 100 99 99 95 88 82 82 82 83 84 90 94 86 78 78 80 84 89 94 98 98 95 90 86 85 86 88 88 88 87 88 86 84 84 83 82 83 82 82 82 82 81 79 78 76 77
127 139 147 152 154 154 157 160 164 167 165 163 163 161 158 155 152 147 147 151 149 149 147 145 142 139 136 132 127 122 120 117 114 115 114 113 113 112 107 103 103 103 99 92 85 82 82 82 83 90 96 87 83 84 84 88 92 96 100 100 96 92 90 88 87 90 90 89 89 88 87 84 83 82 82 82 81 79 80 80 78 78 78 76 75
126 138 149 151 152 154 157 162 166 168 167 165 164 163 160 157 154 149 150 152 151 151 148 147 143 141 139 135 129 124 123 119 119 120 116 112 111 109 108 107 107 107 104 97 91 86 81 82 82 87 94 90 85 87 88 88 97 102 103 102 101 101 99 94 88 89 90 90 88 86 85 83 81 81 81 79 79 77 75 75 73 72 74 75 74
126 140 149 148 151 155 158 164 167 169 168 165 165 165 162 159 155 152 152 152 152 152 150 148 144 142 140 138 132 129 127 121 121 122 119 114 110 109 110 113 114 110 106 102 96 90 84 82 81 82 88 90 87 90 93 91 102 109 109 110 110 113 112 108 97 89 91 92 90 88 85 81 79 76 75 75 74 74 72 71 69 66 66 69 71
130 139 144 144 148 155 160 165 168 170 169 166 166 166 163 160 157 154 153 154 154 154 152 149 145 143 143 142 136 133 130 123 123 124 122 119 115 114 117 119 118 112 108 108 101 94 88 84 81 80 81 84 86 92 103 101 107 114 116 119 117 116 115 114 109 100 95 95 92 90 88 81 78 73 71 72 71 74 75 75 73 70 66 65 68
133 137 139 141 145 157 163 165 168 170 169 168 167 167 164 161 159 156 155 155 157 157 154 150 146 144 145 146 140 137 135 129 130 130 128 125 120 121 124 122 118 113 114 112 105 98 93 89 82 79 77 79 83 88 108 113 114 120 121 119 115 114 112 109 113 113 102 99 94 93 96 87 81 75 73 74 71 71 75 82 79 76 73 70 71
135 140 138 141 151 160 164 167 169 170 169 169 168 167 164 162 160 156 156 157 159 159 154 150 146 145 145 146 144 142 139 137 139 136 133 129 126 130 129 122 119 118 121 116 106 102 96 93 82 78 78 78 82 88 107 121 123 126 120 113 110 112 112 109 115 119 107 99 96 102 105 95 85 78 77 79 76 74 73 80 81 79 77 74 74
141 142 138 143 156 162 165 168 168 168 168 167 167 166 164 162 160 158 158 159 160 158 153 150 148 146 144 144 144 143 141 140 142 139 135 132 133 135 128 122 123 122 122 120 112 105 97 93 84 81 81 80 82 86 103 122 130 131 120 109 104 103 103 99 92 96 106 90 95 110 106 94 90 83 82 81 84 86 77 75 77 77 77 75 75
145 144 140 145 155 164 167 168 168 167 166 166 165 163 162 162 161 160 160 160 159 156 152 151 150 148 142 141 144 143 141 139 141 140 135 135 136 134 131 133 132 128 126 125 117 105 97 95 92 89 88 88 86 87 100 117 134 135 121 108 104 96 82 75 60 67 102 94 91 101 96 92 91 90 90 83 83 85 78 79 80 79 78 77 78
145 142 142 149 157 165 166 167 167 165 165 165 163 161 161 162 162 160 159 159 156 154 153 152 150 147 142 141 145 145 142 141 142 138 135 136 137 138 143 148 143 140 135 126 117 109 110 111 105 98 91 90 89 91 100 112 132 138 125 113 110 97 77 69 63 74 93 94 88 86 87 92 94 90 87 84 80 79 82 85 83 82 82 80 79
142 140 146 158 161 165 166 167 165 164 164 163 162 161 162 162 162 160 159 159 155 153 152 153 151 147 144 145 147 146 145 147 146 141 138 139 142 149 152 153 149 141 131 124 122 122 127 123 107 91 78 82 91 97 106 116 129 138 134 125 118 99 74 60 60 79 90 92 89 85 85 90 96 91 84 86 83 82 86 87 86 85 83 81 80
144 144 155 165 163 166 166 165 164 163 162 162 163 161 162 162 161 159 157 156 152 151 151 153 152 148 146 146 146 146 148 150 149 146 142 144 151 156 155 152 146 135 130 132 135 135 135 125 104 85 76 82 96 107 117 123 128 137 138 130 113 78 60 61 67 83 92 91 88 87 89 91 97 96 91 93 87 85 86 88 89 86 86 83 81
148 148 161 166 160 165 166 164 163 162 161 161 161 160 162 161 160 157 155 154 151 149 152 155 153 150 148 146 146 146 149 148 149 148 147 153 159 161 159 151 144 138 137 143 145 142 133 113 94 85 86 92 100 112 125 130 131 136 134 120 92 63 52 65 79 89 92 92 90 90 94 96 99 98 95 93 89 89 88 90 90 89 90 86 84
150 150 159 162 158 165 165 164 164 161 161 160 160 160 161 160 159 157 154 153 151 152 156 157 155 152 151 149 148 148 147 145 148 150 154 161 163 166 159 147 144 144 143 150 147 134 121 99 84 88 97 100 100 110 128 135 133 131 119 97 72 60 57 66 85 95 96 96 96 95 97 98 99 97 94 93 93 93 91 90 91 90 90 87 88
151 152 154 158 159 164 166 164 163 161 161 160 160 160 160 161 159 157 155 154 154 158 159 158 158 156 155 153 149 148 147 147 153 156 161 167 167 167 157 146 147 148 150 155 145 129 119 98 85 98 106 105 102 105 123 134 131 117 94 78 66 62 66 75 93 99 97 97 95 95 97 96 96 97 95 95 95 93 91 90 90 90 89 89 89
153 157 155 157 158 161 165 165 163 161 161 160 161 161 160 160 160 158 156 157 158 161 161 159 160 159 159 157 152 151 150 154 162 165 169 170 168 165 154 149 149 154 160 153 142 134 123 104 91 107 116 110 105 102 116 129 120 99 83 75 69 70 74 80 93 96 95 96 94 96 98 97 97 96 96 96 95 93 92 90 90 90 89 90 89
156 160 158 158 160 160 159 161 162 159 159 160 160 160 159 159 161 160 158 159 160 162 162 161 161 162 162 161 157 155 155 160 168 173 174 172 170 163 155 153 154 161 169 152 142 142 129 110 98 112 126 117 106 103 109 118 111 97 88 84 81 82 82 84 90 92 93 96 95 97 100 102 101 97 97 97 96 96 93 91 91 92 92 92 91
161 160 160 160 159 157 154 155 155 154 157 157 159 161 160 161 163 162 160 160 160 162 162 162 163 165 166 164 159 157 160 164 170 176 177 178 177 170 164 163 163 163 165 152 148 151 133 113 103 111 132 126 109 106 108 112 107 98 92 86 84 80 78 88 95 93 91 94 95 97 98 97 97 98 99 98 97 96 95 95 94 92 92 91 90
166 162 162 163 160 154 150 150 151 152 153 154 157 162 162 161 163 162 160 160 160 159 158 159 160 163 166 166 161 159 161 162 166 172 175 179 178 174 173 173 171 165 160 155 155 157 138 119 110 108 128 136 120 113 111 109 106 101 94 84 80 76 74 85 92 92 93 95 95 97 100 97 95 98 98 97 98 97 97 96 93 92 94 93 91
172 168 164 162 158 154 149 148 152 152 148 150 152 156 159 158 160 161 160 161 160 155 151 153 156 159 163 163 160 158 158 158 163 167 168 173 174 173 176 176 174 170 167 166 164 161 146 128 119 114 124 140 135 124 119 115 113 107 97 89 85 81 83 90 92 95 97 98 99 99 101 100 98 98 97 96 96 97 97 97 94 94 95 94 92
174 173 171 167 159 152 149 148 148 149 144 141 142 148 154 153 157 160 161 164 161 154 151 152 155 158 159 158 157 156 157 158 162 162 161 168 171 172 179 179 174 175 173 175 182 178 159 138 131 125 122 141 147 135 129 125 118 108 98 90 81 78 90 106 106 102 104 105 103 104 103 102 102 99 97 99 100 100 100 98 94 93 93 93 93
173 173 167 152 144 137 134 141 142 141 137 133 141 150 152 153 158 160 163 166 162 155 153 156 156 155 157 158 156 158 163 163 160 160 161 165 168 171 180 182 177 179 178 180 191 187 169 150 142 139 132 137 141 144 143 132 119 104 93 79 72 88 105 114 116 108 110 112 106 109 110 106 106 103 101 100 100 97 96 96 93 94 94 93 93
83 63 83 86 94 111 110 131 144 139 140 143 147 148 149 155 160 162 166 165 161 155 152 157 158 157 162 164 160 161 165 161 157 159 160 160 164 169 176 181 182 188 185 183 186 183 177 168 158 156 155 136 133 166 177 159 140 102 72 62 84 114 111 104 109 110 113 117 117 121 119 114 111 108 106 102 101 98 96 96 94 92 90 90 91
74 73 101 110 113 129 125 136 151 147 146 148 146 150 155 157 161 166 168 164 157 153 152 159 163 165 169 170 167 165 162 159 157 158 157 157 162 169 176 181 188 191 182 182 184 182 181 179 176 171 164 154 168 190 190 198 206 186 235 176 127 138 122 104 101 108 118 120 122 125 120 117 117 114 110 107 106 103 101 98 94 92 91 92 92
114 97 120 137 134 139 141 144 152 150 146 148 149 158 162 158 165 170 168 165 158 150 154 167 171 171 173 174 172 168 164 162 159 158 156 158 166 170 174 181 191 189 177 179 190 190 189 187 185 180 175 194 205 195 194 214 219 211 206 162 132 118 117 108 106 110 118 119 117 117 115 116 117 114 111 108 104 100 101 99 99 98 94 92 90
113 106 126 144 142 140 148 150 151 149 148 153 156 161 163 158 168 173 170 168 162 154 157 172 177 173 175 178 178 172 168 168 167 164 159 164 174 169 170 183 189 185 176 177 182 188 190 185 183 190 199 210 209 197 209 227 219 220 203 165 124 91 116 115 125 122 112 121 118 112 110 113 116 117 115 109 106 104 102 99 98 95 93 94 93
118 128 140 151 154 147 153 155 150 150 153 157 159 162 162 160 167 171 172 170 163 160 164 175 183 178 174 178 182 178 172 174 175 170 163 169 184 181 180 188 188 181 175 182 187 190 191 185 184 197 207 210 215 205 215 237 226 227 206 174 81 88 138 134 133 138 123 119 122 122 115 111 113 117 118 112 109 107 102 100 97 96 99 104 101
134 143 151 157 163 156 159 159 151 151 156 156 161 164 160 164 171 168 169 171 162 159 167 175 185 184 176 174 180 182 178 177 179 177 171 177 190 192 189 187 187 183 176 184 191 193 192 189 193 199 202 202 210 210 215 240 238 230 208 170 77 95 148 141 138 150 134 119 126 131 117 109 110 110 113 110 110 108 108 109 106 107 107 104 100
144 151 162 161 165 163 164 164 155 155 158 157 161 162 162 168 172 166 164 171 167 161 168 176 184 187 182 174 174 180 183 180 177 178 176 180 190 192 190 184 182 180 178 180 180 184 185 189 199 196 196 197 203 206 211 235 238 218 207 94 80 137 170 149 146 148 134 129 130 126 116 108 106 106 110 109 112 113 113 112 105 105 100 97 97
151 151 158 160 162 166 166 166 162 158 159 159 158 156 161 168 168 166 163 169 170 162 168 176 178 186 188 181 177 178 180 177 174 175 175 180 190 192 188 181 175 176 180 179 177 180 181 188 194 192 201 205 197 199 207 227 226 191 102 76 97 150 183 164 157 148 133 124 115 116 117 114 110 112 118 116 116 116 110 104 99 98 98 99 102
154 149 154 162 160 164 165 165 165 161 159 158 156 152 155 164 167 170 170 173 172 162 166 173 174 181 185 185 184 180 177 176 176 178 178 180 193 194 187 181 175 175 179 177 175 174 177 188 185 190 215 196 168 178 194 210 212 181 87 92 114 131 158 163 157 138 124 119 113 120 123 119 120 121 126 121 113 108 102 99 100 99 96 96 96
152 151 156 163 163 166 165 165 165 164 164 160 156 152 152 161 168 170 169 173 173 163 164 171 175 177 179 183 185 184 183 182 181 182 180 179 190 191 183 184 182 176 179 176 170 171 174 181 179 182 190 144 134 145 171 180 194 179 107 110 135 135 146 158 150 120 125 136 135 138 135 129 128 125 128 125 115 110 106 101 100 96 90 87 87
151 151 153 159 165 168 166 166 164 164 168 161 155 150 151 160 168 167 164 166 169 163 162 170 176 176 178 183 185 188 189 186 184 184 181 181 194 191 177 182 181 173 177 173 166 172 172 167 175 174 144 132 132 129 159 158 152 170 135 110 126 147 154 146 134 114 132 150 152 146 141 133 126 122 125 128 124 116 113 113 108 101 95 90 88
150 152 155 159 164 167 168 169 165 165 165 159 154 150 150 156 163 165 161 161 163 162 164 169 172 174 178 183 186 186 187 187 185 184 186 190 196 188 175 177 174 168 173 170 167 176 179 176 179 171 143 132 128 125 150 153 144 157 150 110 112 124 144 142 124 115 133 152 158 147 142 140 134 129 125 129 132 127 129 130 117 102 96 97 102
153 155 160 163 166 167 168 170 169 165 161 160 156 151 150 151 157 163 161 159 161 163 166 169 168 171 177 183 186 183 181 181 178 188 199 201 194 182 175 175 170 171 174 172 173 180 185 186 183 173 160 137 126 136 159 149 137 140 139 122 112 106 123 137 113 117 138 153 159 151 147 150 148 148 138 126 135 137 136 129 109 90 81 82 96
160 160 164 165 169 171 170 172 172 166 161 161 156 154 153 150 155 161 160 160 168 165 162 165 166 170 177 181 183 182 180 178 180 195 205 200 189 180 176 170 167 175 177 178 181 178 176 172 162 155 167 153 128 137 150 136 128 136 128 111 110 104 113 124 115 127 140 147 157 156 155 156 152 152 145 130 136 137 130 118 103 94 83 76 76
167 168 172 169 171 172 170 171 172 168 160 157 155 154 152 152 154 158 158 157 170 174 162 160 165 172 179 179 179 183 183 183 188 197 202 193 180 179 180 168 167 175 173 179 183 176 171 158 147 141 150 155 139 141 139 127 128 132 115 91 92 98 102 110 113 131 143 142 143 145 158 161 150 147 145 136 139 141 135 127 111 98 86 78 76
171 174 177 173 172 171 170 169 169 167 159 155 156 151 150 154 153 155 159 154 160 178 171 166 172 177 177 175 179 186 187 187 189 192 197 191 175 176 181 167 169 174 168 177 180 172 167 153 145 142 141 140 146 152 138 126 130 128 118 98 90 97 97 100 104 119 140 142 131 132 152 160 147 139 142 141 144 151 146 135 121 102 92 88 90
174 180 181 176 173 173 172 171 170 167 160 157 154 149 151 157 154 155 162 159 159 171 171 174 181 181 173 173 182 190 190 188 189 188 188 185 173 176 179 168 173 175 170 178 175 168 161 154 152 147 144 140 138 144 143 136 125 111 113 107 98 101 101 102 105 118 134 138 134 130 138 150 149 141 145 149 150 155 147 134 125 108 103 102 101
184 188 184 178 175 176 174 173 172 168 164 160 153 152 157 160 158 159 165 167 166 166 164 170 179 179 172 176 185 188 187 186 188 185 183 182 176 181 182 174 178 179 180 184 175 170 164 162 164 154 149 145 137 139 148 144 124 112 113 109 100 99 102 102 105 119 134 138 141 137 133 140 146 146 148 150 148 148 138 128 126 117 111 106 98
196 193 187 183 180 179 176 174 171 170 173 164 153 158 164 162 159 163 169 166 162 163 161 166 173 176 172 175 184 187 184 183 186 186 185 186 182 184 187 182 182 184 182 176 172 171 164 162 163 157 154 149 146 149 152 145 128 129 129 118 101 93 96 95 102 124 140 143 140 140 137 134 138 144 148 150 147 141 129 120 125 128 118 104 97
195 192 188 184 183 180 176 174 172 174 176 165 160 167 167 159 155 162 170 161 153 161 164 167 169 173 174 174 181 187 185 183 184 187 187 188 185 188 194 187 183 189 185 173 170 173 167 166 164 160 159 150 147 157 159 149 132 132 128 122 115 103 100 92 99 119 136 144 137 137 145 142 140 145 151 152 144 134 123 110 114 131 129 111 102
187 192 188 181 179 179 175 172 174 174 168 164 169 172 164 157 153 159 165 158 156 162 166 171 170 170 172 173 180 185 188 186 183 186 189 189 188 193 197 187 183 192 195 185 176 177 175 172 171 169 167 156 147 158 170 159 140 137 129 105 126 127 110 113 109 113 129 139 138 141 151 153 149 148 151 146 134 126 117 103 105 120 126 116 105
197 193 186 182 177 178 175 171 173 171 166 169 175 174 165 158 155 157 157 152 159 165 169 174 175 173 170 175 187 186 185 187 184 185 191 190 188 189 188 184 191 195 192 191 184 182 180 174 177 179 176 165 148 153 170 166 160 159 142 111 126 127 129 135 126 120 136 137 142 149 149 151 151 147 144 138 127 118 112 112 118 119 121 117 109
245 210 190 186 179 176 175 171 172 171 169 176 181 179 171 164 159 162 163 158 162 172 179 178 175 177 179 181 187 184 183 187 184 183 187 187 186 188 185 185 197 194 184 188 189 186 183 180 182 181 182 174 150 147 157 161 163 161 144 121 109 112 144 150 136 122 143 137 146 155 151 150 149 142 135 130 124 119 118 123 125 125 125 122 119
216 214 195 186 180 178 177 174 175 173 171 180 185 180 173 172 168 169 172 168 169 178 184 181 174 176 184 183 182 185 185 182 179 179 182 184 184 186 184 183 188 187 184 189 192 190 190 187 181 177 181 180 161 151 157 163 153 148 156 143 111 114 141 153 144 139 142 133 147 155 157 155 151 145 137 131 128 127 131 131 124 126 129 128 131
196 202 193 186 183 181 178 176 177 172 166 180 187 177 171 177 176 172 173 170 174 179 179 181 181 180 184 182 182 185 180 177 177 175 176 179 179 180 180 178 178 181 185 190 194 192 193 187 176 174 176 175 173 159 156 163 155 152 165 154 132 134 137 138 146 152 139 126 150 152 152 150 145 147 143 140 139 136 141 144 135 129 129 128 128
188 193 191 187 182 179 178 174 172 162 151 169 188 183 173 172 171 169 169 169 172 177 179 183 184 180 181 183 183 182 178 177 176 172 172 172 169 171 172 171 171 176 181 185 189 190 194 185 172 175 173 167 180 172 161 166 162 159 164 156 143 141 133 129 141 148 133 132 154 147 146 142 128 135 142 145 148 146 147 146 135 130 131 126 120
186 190 190 188 181 177 174 167 161 149 143 156 179 189 185 169 172 178 176 174 169 173 181 180 180 181 182 185 184 181 177 173 171 170 170 169 165 165 167 169 170 172 176 180 182 179 182 180 174 179 174 166 176 174 163 166 166 165 164 164 158 144 139 135 138 141 130 132 143 144 153 147 127 136 148 148 147 144 140 134 128 125 127 128 129
190 189 187 187 179 173 171 161 155 150 148 155 170 187 192 178 183 191 185 180 174 173 177 174 182 186 180 183 184 179 173 169 169 168 166 166 164 163 165 169 170 170 173 176 175 172 175 178 176 177 176 173 174 168 157 154 157 163 164 165 168 157 149 151 154 149 141 149 147 146 156 148 138 151 159 155 147 141 137 133 133 130 131 139 149